This is the latest recevied weather packets stored in our database for station/object K7TUS-6. If no packets are shown the sender has not sent any weather packets the latest 10 day(s).
| Time | Temp. | Humidity | Pressure | Rain* | Wind** | Luminosity | Snow |
|---|---|---|---|---|---|---|---|
| 1777652705 | 11.11° C | 18% | 980.9 hPa | - | - | - | - |
| 1777652405 | 10.56° C | 15% | 981.8 hPa | - | - | - | - |
| 1777652104 | 10.56° C | 18% | 981.9 hPa | - | - | - | - |
| 1777651804 | 9.44° C | 15% | 981.4 hPa | - | - | - | - |
| 1777651503 | 10° C | 18% | 980.9 hPa | - | - | - | - |
| 1777651209 | 8.33° C | 21% | 980.6 hPa | - | - | - | - |
| 1777650908 | 8.33° C | 21% | 980.6 hPa | - | - | - | - |
| 1777650307 | 7.22° C | 20% | 980.3 hPa | - | - | - | - |
| 1777650007 | 7.22° C | 20% | 980.3 hPa | - | - | - | - |
| 1777649706 | 7.78° C | 21% | 980.6 hPa | - | - | - | - |
| 1777649406 | 7.78° C | 21% | 980.6 hPa | - | - | - | - |
| 1777649105 | 7.78° C | 21% | 980.6 hPa | - | - | - | - |
| 1777648804 | 7.78° C | 23% | 980.7 hPa | - | - | - | - |
| 1777648504 | 7.78° C | 21% | 979.9 hPa | - | - | - | - |
| 1777647903 | 8.33° C | 21% | 980 hPa | - | - | - | - |
| 1777647603 | 7.22° C | 22% | 979.4 hPa | - | - | - | - |
| 1777647308 | 7.78° C | 21% | 978.8 hPa | - | - | - | - |
| 1777647007 | 7.22° C | 21% | 979.9 hPa | - | - | - | - |
| 1777646707 | 7.22° C | 23% | 978.6 hPa | - | - | - | - |
| 1777646406 | 6.67° C | 22% | 979.2 hPa | - | - | - | - |
| 1777645806 | 6.67° C | 21% | 980.5 hPa | - | - | - | - |
| 1777645505 | 6.11° C | 23% | 979.5 hPa | - | - | - | - |
| 1777645204 | 6.11° C | 22% | 978.8 hPa | - | - | - | - |
| 1777644904 | 6.11° C | 21% | 978.2 hPa | - | - | - | - |
| 1777644603 | 5.56° C | 25% | 978.4 hPa | - | - | - | - |
* Rain since midnight (hover to see other rain measurements)
** Current wind speed in m/s (hover to see current wind gust speed)